This is the latest recevied weather packets stored in our database for station/object PACCTY-2. If no packets are shown the sender has not sent any weather packets the latest 1 day(s).
| Time | Temp. | Humidity | Pressure | Rain* | Wind** | Luminosity | Snow |
|---|---|---|---|---|---|---|---|
| 1777996429 | 12.78° C | - | - | 0 mm | 3.13 m/s, 236° | - | - |
| 1777995828 | 12.78° C | - | - | 0 mm | 2.24 m/s, 253° | - | - |
| 1777994925 | 12.22° C | - | - | 0 mm | 0 m/s | - | - |
| 1777994624 | 12.22° C | - | - | 0 mm | 0 m/s | - | - |
| 1777994322 | 12.22° C | - | - | 0 mm | 0 m/s | - | - |
| 1777993722 | 12.22° C | - | - | 0 mm | 0 m/s | - | - |
| 1777993118 | 12.22° C | - | - | 0 mm | 1.79 m/s, 252° | - | - |
| 1777992819 | 12.22° C | - | - | 0 mm | 0.45 m/s, 246° | - | - |
| 1777992525 | 12.22° C | - | - | 0 mm | 0 m/s | - | - |
| 1777992520 | 12.22° C | - | - | 0 mm | 0 m/s | - | - |
| 1777992516 | 12.22° C | - | - | 0 mm | 0 m/s | - | - |
| 1777992216 | 12.22° C | - | - | 0 mm | 0.45 m/s, 221° | - | - |
| 1777991914 | 12.22° C | - | - | 0 mm | 0.89 m/s, 233° | - | - |
| 1777991613 | 12.22° C | - | - | 0 mm | 2.68 m/s, 233° | - | - |
| 1777991312 | 12.22° C | - | - | 0 mm | 2.24 m/s, 260° | - | - |
| 1777991012 | 12.22° C | - | - | 0 mm | 1.34 m/s, 231° | - | - |
| 1777990710 | 12.22° C | - | - | 0 mm | 1.79 m/s, 212° | - | - |
| 1777990409 | 12.22° C | - | - | 0 mm | 3.13 m/s, 228° | - | - |
| 1777990108 | 12.22° C | - | - | 0 mm | 3.13 m/s, 236° | - | - |
| 1777989506 | 12.22° C | - | - | 0 mm | 3.13 m/s, 229° | - | - |
| 1777989205 | 12.22° C | - | - | 0 mm | 2.24 m/s, 263° | - | - |
| 1777988904 | 12.22° C | - | - | 0 mm | 2.68 m/s, 235° | - | - |
| 1777988603 | 12.22° C | - | - | 0 mm | 2.24 m/s, 249° | - | - |
| 1777988002 | 12.22° C | - | - | 0 mm | 2.68 m/s, 0° | - | - |
| 1777987701 | 12.22° C | - | - | 0 mm | 0 m/s | - | - |
* Rain latest hour (hover to see other rain measurements)
** Current wind speed in m/s (hover to see current wind gust speed)